This is the latest recevied weather packets stored in our database for station/object KF0TNT. If no packets are shown the sender has not sent any weather packets the latest 1 day(s).
| Time | Temp. | Humidity | Pressure | Rain* | Wind** | Luminosity | Snow |
|---|---|---|---|---|---|---|---|
| 1778028153 | 0° C | 96% | 1013.3 hPa | 0.51 mm | 4.02 m/s, 298° | 12 W/m² | - |
| 1778027849 | 0.56° C | 96% | 1013.3 hPa | 0.51 mm | 1.79 m/s, 357° | 12 W/m² | - |
| 1778027546 | 0.56° C | 96% | 1013.3 hPa | 0 mm | 0.89 m/s, 358° | 15 W/m² | - |
| 1778027241 | 0.56° C | 96% | 1013.3 hPa | 0.51 mm | 1.34 m/s, 353° | 22 W/m² | - |
| 1778026938 | 0.56° C | 96% | 1013.5 hPa | 0.51 mm | 2.24 m/s, 7° | 24 W/m² | - |
| 1778026634 | 0.56° C | 96% | 1013.5 hPa | 0.51 mm | 2.24 m/s, 325° | 24 W/m² | - |
| 1778026332 | 0.56° C | 96% | 1013.4 hPa | 1.27 mm | 1.79 m/s, 336° | 18 W/m² | - |
| 1778026028 | 0.56° C | 96% | 1013.3 hPa | 1.27 mm | 2.24 m/s, 18° | 16 W/m² | - |
| 1778025726 | 0.56° C | 96% | 1013.3 hPa | 1.27 mm | 2.24 m/s, 331° | 17 W/m² | - |
| 1778025423 | 1.11° C | 96% | 1012.7 hPa | 0.51 mm | 2.24 m/s, 340° | 19 W/m² | - |
| 1778025121 | 1.11° C | 97% | 1013.2 hPa | 0 mm | 1.79 m/s, 354° | 16 W/m² | - |
| 1778024817 | 1.11° C | 97% | 1013.2 hPa | 0 mm | 2.24 m/s, 2° | 16 W/m² | - |
| 1778024515 | 1.11° C | 96% | 1012.8 hPa | 0 mm | 1.79 m/s, 0° | 23 W/m² | - |
| 1778024211 | 1.11° C | 96% | 1012.8 hPa | 0.51 mm | 1.79 m/s, 7° | 22 W/m² | - |
| 1778023909 | 1.11° C | 96% | 1012.7 hPa | 1.27 mm | 1.79 m/s, 0° | 21 W/m² | - |
| 1778023606 | 1.11° C | 96% | 1012.7 hPa | 0.51 mm | 0.89 m/s, 14° | 27 W/m² | - |
| 1778023304 | 1.11° C | 97% | 1012.7 hPa | 0 mm | 1.34 m/s, 342° | 24 W/m² | - |
| 1778023000 | 1.11° C | 96% | 1012.5 hPa | 0.51 mm | 0.89 m/s, 3° | 34 W/m² | - |
| 1778022699 | 1.11° C | 96% | 1012.4 hPa | 1.27 mm | 2.24 m/s, 12° | 31 W/m² | - |
| 1778022397 | 1.11° C | 96% | 1012.5 hPa | 1.27 mm | 0 m/s | 32 W/m² | - |
| 1778022093 | 1.11° C | 96% | 1012.4 hPa | 1.27 mm | 0.89 m/s, 16° | 45 W/m² | - |
| 1778021789 | 1.11° C | 97% | 1012.2 hPa | 0.51 mm | 0.89 m/s, 7° | 45 W/m² | - |
| 1778021486 | 1.11° C | 96% | 1012.3 hPa | 0.51 mm | 0.89 m/s, 15° | 37 W/m² | - |
| 1778021182 | 1.11° C | 96% | 1012 hPa | 0 mm | 0.89 m/s, 356° | 46 W/m² | - |
| 1778020880 | 1.11° C | 96% | 1012 hPa | 0 mm | 1.34 m/s, 357° | 44 W/m² | - |
* Rain latest hour (hover to see other rain measurements)
** Current wind speed in m/s (hover to see current wind gust speed)